TimeCDT,TemperatureF,Dew PointF,Humidity,Sea Level PressureIn,VisibilityMPH,Wind Direction,Wind SpeedMPH,Gust SpeedMPH,PrecipitationIn,Events,Conditions,WindDirDegrees,DateUTC
12:54 AM,57.9,44.1,60,29.96,10.0,SE,9.2,-,N/A,,Overcast,140,2013-05-07 05:54:00
1:54 AM,55.9,46.9,72,29.96,10.0,SSE,9.2,-,N/A,,Overcast,150,2013-05-07 06:54:00
2:54 AM,53.1,46.0,77,29.96,10.0,SSE,6.9,-,N/A,,Scattered Clouds,160,2013-05-07 07:54:00
3:54 AM,54.0,46.0,75,29.97,10.0,South,8.1,-,N/A,,Overcast,190,2013-05-07 08:54:00
4:54 AM,53.6,48.2,82,30.02,10.0,South,8.1,-,N/A,,Overcast,180,2013-05-07 09:54:00
5:54 AM,53.1,46.9,80,29.96,9.0,South,10.4,-,0.01,Rain,Light Rain,170,2013-05-07 10:54:00
6:54 AM,52.0,48.0,86,29.95,10.0,SSE,12.7,-,0.00,,Overcast,150,2013-05-07 11:54:00
7:54 AM,53.6,48.2,82,30.01,10.0,SSE,17.3,-,N/A,,Overcast,150,2013-05-07 12:54:00
8:54 AM,54.0,50.0,86,29.95,10.0,SSE,19.6,-,N/A,,Mostly Cloudy,150,2013-05-07 13:54:00
9:54 AM,60.1,48.9,67,29.94,10.0,SSE,26.5,34.5,N/A,,Clear,160,2013-05-07 14:54:00
10:54 AM,63.0,48.9,60,29.92,10.0,SSE,21.9,34.5,N/A,,Clear,160,2013-05-07 15:54:00
11:54 AM,66.9,48.0,51,29.91,10.0,South,25.3,33.4,N/A,,Partly Cloudy,190,2013-05-07 16:54:00
12:54 PM,71.1,46.9,42,29.88,10.0,South,26.5,34.5,N/A,,Scattered Clouds,190,2013-05-07 17:54:00
1:54 PM,75.0,45.0,34,29.84,10.0,South,26.5,35.7,N/A,,Clear,180,2013-05-07 18:54:00
2:54 PM,78.1,44.1,30,29.81,10.0,South,19.6,31.1,N/A,,Clear,180,2013-05-07 19:54:00
3:54 PM,79.0,39.9,25,29.77,10.0,South,21.9,31.1,N/A,,Partly Cloudy,190,2013-05-07 20:54:00
4:54 PM,81.0,39.0,22,29.74,10.0,South,12.7,31.1,N/A,,Partly Cloudy,190,2013-05-07 21:54:00
5:54 PM,81.0,39.9,23,29.72,10.0,South,20.7,31.1,N/A,,Partly Cloudy,180,2013-05-07 22:54:00
6:54 PM,81.0,37.9,21,29.70,10.0,SSW,17.3,27.6,N/A,,Clear,200,2013-05-07 23:54:00
7:54 PM,77.0,39.9,26,29.70,10.0,South,16.1,24.2,N/A,,Clear,180,2013-05-08 00:54:00
8:54 PM,69.1,41.0,36,29.73,10.0,South,9.2,-,N/A,,Clear,170,2013-05-08 01:54:00
9:54 PM,68.0,44.1,42,29.74,10.0,SSE,20.7,-,N/A,,Scattered Clouds,150,2013-05-08 02:54:00
10:54 PM,63.0,46.0,54,29.79,10.0,SSW,11.5,-,N/A,,Scattered Clouds,200,2013-05-08 03:54:00
11:54 PM,60.1,46.0,60,29.78,10.0,SSE,10.4,-,N/A,,Clear,150,2013-05-08 04:54:00